Location: Bayshore Village Mobile Home Park
(26.6945°N, 81.8642°W)
Time: 15:26:12
(UTC+00:00)

Nadezhda 2 Rocket - Pass Details

Date: 17 June 2021
Orbit: 949 x 1010 km, 83.0° (Epoch: 26 July)

Event Time Altitude Azimuth Distance (km) Brightness Sun altitude
Exits shadow 09:24:14 - 184° (S) 3,232 6.9 -14.2°
Reaches altitude 10° 09:25:43 10° 184° (S) 2,672 6.4 -13.9°
Maximum altitude 09:31:49 88° 276° (W) 953 4.4 -12.8°
Drops below altitude 10° 09:37:56 10° 5° (N) 2,672 7.4 -11.6°
Sets 09:40:25 0° 5° (N) 3,622 8.1 -11.2°
